Simultaneous Nadir Overpasses (SNOs) Predictions

Prediction of SNOs between NPP and TERRA Satellite Orbit:

Table of predicted SNOs for the next 14.0 days since TLE Epoch: 3/29/2019
Index Date (NPP) Time (NPP) Lat,Lon (NPP) SZA (NPP ) Date (TERRA) Time (TERRA) Lat,Lon (TERRA) SZA (TERRA ) Distance(km) Time Diff (sec)
1 03/29/2019 19:12:46 68.37,-109.64 64.78 03/29/2019 19:13:33 68.35,-109.58 64.76 2.74 47
2 03/29/2019 20:03:26 -68.19, 57.91 115.42 03/29/2019 20:03:04 -68.19, 57.86 115.41 2.31 22
3 03/29/2019 20:53:54 67.19,-133.56 63.55 03/29/2019 20:52:46 67.24,-135.58 63.64 87.43 68
4 04/01/2019 11:29:38 68.30, 6.23 63.67 04/01/2019 11:30:03 68.31, 6.24 63.68 0.76 25
5 04/01/2019 12:20:19 -68.17, 173.71 116.48 04/01/2019 12:19:34 -68.15, 173.68 116.50 2.69 45
6 04/04/2019 02:55:51 -68.63, -45.73 117.01 04/04/2019 02:57:03 -68.54, -45.25 117.12 21.97 72
7 04/04/2019 03:46:30 68.24, 122.09 62.58 04/04/2019 03:46:33 68.25, 122.05 62.59 2.38 3
8 04/04/2019 04:37:12 -68.15, -70.49 117.53 04/04/2019 04:36:03 -68.15, -70.43 117.52 2.28 69
9 04/06/2019 19:12:39 -68.35, 70.42 118.32 04/06/2019 19:13:35 -68.37, 70.43 118.30 2.50 56
10 04/06/2019 20:03:23 68.23,-122.12 61.55 04/06/2019 20:03:02 68.25,-122.07 61.57 3.02 21
11 04/06/2019 20:53:53 -67.49, 46.11 119.21 04/06/2019 20:52:43 -67.54, 44.74 119.15 58.35 70
12 04/09/2019 11:29:30 -68.28,-173.72 119.39 04/09/2019 11:30:04 -68.31,-173.77 119.37 3.28 34
13 04/09/2019 12:20:14 68.17, -6.26 60.48 04/09/2019 12:19:31 68.18, -6.27 60.50 1.73 43
14 04/12/2019 02:55:48 68.75, 134.13 60.11 04/12/2019 02:56:59 68.61, 134.85 59.96 32.66 71
15 04/12/2019 03:46:23 -68.28, -57.93 120.39 04/12/2019 03:46:33 -68.29, -57.90 120.38 2.29 10
16 04/12/2019 04:37:06 68.11, 109.59 59.43 04/12/2019 04:36:01 68.11, 109.53 59.44 2.60 65




NCC Satellite Simultaneous Nadir Overpasses (SNOs) Prediction Service
